sat.trackr.live / text

‹ back to catalog

STARLINK-3781

NORAD 52272 · 2022-041M

PAYLOAD ACTIVE UNKNOWN

§ Identity

Operator
Country
US
Launch date
2022-04-21
Launch site
AFETR
Launch vehicle
Mass (kg)
RCS (m²)

Purposes: comms

External: N2YO · Heavens-Above · Gunter

§ Orbital elements

Epoch: 2026-05-25T02:59:16.112256Z

Period
95.44 min
Inclination
53.2148°
Eccentricity
0.0001263
Mean motion
15.08835826 rev/d
Perigee alt
538.9 km
Apogee alt
540.6 km
Semi-major
6,917.9 km
B*
2.9731e-5
RAAN
126.0319°
Arg perigee
76.9488°
Mean anomaly
283.1645°
Rev number
22,590

§ Raw data

STARLINK-37811 52272U 22041M   26145.12449204  .00000185  00000+0  29731-4 0  99902 52272  53.2148 126.0319 0001263  76.9488 283.1645 15.08835826225902

JSON: /api/v1/satellites/52272 · /tle

For live sub-satellite position, see the globe view (requires WebGL).

§ Visibility from observer

Set your observer location to see the next 7 days of passes ≥ 10°. The values pass through the URL so the page stays shareable.

No JS? Fill the form by hand. The geolocation button needs JavaScript.